Regional Weather Roundup
Issued by NWS

Home | Current Version | Previous Version | Graphics & Text | Print | Product List | Glossary On
Versions: 1 2 3 4 5 6 7 8 9 10 11 12 13 14 15 16 17 18 19 20 21 22 23 24 25 26 27 28 29 30 31 32 33 34 35 36 37 38 39 40 41 42 43 44 45 46 47 48 49 50
000
ASUS43 KLSX 280759
RWRMO

WEATHER SUMMARY FOR MISSOURI
NATIONAL WEATHER SERVICE SPRINGFIELD MO
200 AM CST WED JAN 28 2015

NOTE: "FAIR" INDICATES FEW OR NO CLOUDS BELOW 12,000 FEET WITH NO
       SIGNIFICANT WEATHER AND/OR OBSTRUCTIONS TO VISIBILITY.
       CURRENT SKY AND/OR WEATHER CONDITIONS ARE NOT AVAILABLE FOR
       CHILLICOTHE AND FARMINGTON.

MOZ001>031-035>038-043-044-053-054-280900-
...NORTHERN AND WESTERN MISSOURI...

CITY           SKY/WX    TMP DP  RH WIND       PRES   REMARKS
KANSAS CTY INT CLEAR     40  30  67 SE14      30.00F
KANSAS C DTWN  CLEAR     44  30  57 E6        30.01F
LEE`S SUMMIT   CLEAR     41  30  65 SE12      30.03F
ST JOSEPH      CLEAR     39  30  70 SE8       30.00F
CHILLICOTHE      N/A     34  29  82 SE7       30.10S WCI  28
KIRKSVILLE     MOCLDY    28  28 100 E12       30.15R FOG     WCI  18

$$
MOZ066>068-077>081-088>096-101>105-280900-
...SOUTHWEST MISSOURI...

CITY           SKY/WX    TMP DP  RH WIND       PRES   REMARKS
SPRINGFIELD    CLEAR     46  29  51 SE17      30.08F
JOPLIN         CLEAR     49  28  44 SE8       30.04F

$$
MOZ032>034-039>042-045>050-055>058-069>072-280900-
...CENTRAL MISSOURI...

CITY           SKY/WX    TMP DP  RH WIND       PRES   REMARKS
COLUMBIA       CLEAR     32  29  88 SE13      30.14F WCI  22
JEFFERSON CITY CLEAR     35  29  78 E10       30.17F WCI  27
ROLLA          CLEAR     33  28  81 SE13      30.14S WCI  24
SEDALIA        CLEAR     37  30  75 SE10      30.10F WCI  30
WHITEMAN AFB   CLEAR     38  31  76 SE8       30.07S
OSAGE BEACH    CLEAR     39  28  65 SE8       30.12F

$$
MOZ051-052-059>065-280900-
...EAST CENTRAL MISSOURI...

CITY           SKY/WX    TMP DP  RH WIND       PRES   REMARKS
ST LOUIS INTL  NOT AVBL
SPIRIT OF STL  CLEAR     29  26  89 E3        30.23S
ST CHARLES     CLEAR     28  26  92 E7        30.24F WCI  21

$$
MOZ072>076-082>087-097>100-106>115-280900-
...SOUTH CENTRAL AND SOUTHEAST MISSOURI...

CITY           SKY/WX    TMP DP  RH WIND       PRES   REMARKS
CAPE GIRARDEAU CLEAR     29  28  96 CALM      30.27R
FARMINGTON     CLEAR     28  25  86 MISG      30.26R
POPLAR BLUFF   CLEAR     33  28  81 NE3       30.25R
WEST PLAINS    CLEAR     35  30  82 SE6       30.20S

$$



USA.gov is the U.S. government's official web portal to all federal, state and local government web resources and services.